Tracking 19846 objects as of 18-Sep-2019
HD Live streaming from Space Station
objects crossing your sky now

ORBCOMM FM 15

Track ORBCOMM FM 15 now!
10-day predictions
ORBCOMM FM 15 is classified as:


NORAD ID: 25418
Int'l Code: 1998-046F
Perigee: 785.9 km
Apogee: 792.5 km
Inclination: 45.0 °
Period: 100.5 minutes
Semi major axis: 7160 km
RCS: 0.6025 m2 (medium)
Launch date: August 2, 1998
Source: ORBCOMM (ORB)
Launch site: Pegasus launched from Eastern Range Air Space (ERAS)
aabbcc
Your satellite tracking list
Your tracking list is empty




NASA's NSSDC Master Catalog

Two Line Element Set (TLE):
1 25418U 98046F   19260.77515178 +.00000063 +00000-0 +73704-4 0  9990
2 25418 045.0005 354.2055 0004594 237.0347 266.0129 14.32904230102814
Source of the keplerian elements: AFSPC